OK9CPU-9 Weather Reports


time (UTC)temp
F
wind
direction
speed
knots
gust
knots
rain 1hr
in
rain 24hr
in
rain mn
in
humidity
%
barometer
mb
20260507232308 56 0.0 0.0 0.00 0.00 0.00 31 1015.3
20260507230626 56 0.0 0.0 0.00 0.00 0.00 32 1015.0
20260507224958 56 0.0 0.0 0.00 0.00 0.00 32 1015.0
20260507223316 56 0.0 0.0 0.00 0.00 0.00 32 1014.9
20260507221641 56 0.0 0.0 0.00 0.00 0.00 32 1014.9
20260507220013 57 0.0 0.0 0.00 0.00 0.00 32 1014.8
20260507214331 57 0.0 0.0 0.00 0.00 0.00 32 1014.7
20260507212656 57 0.0 0.0 0.00 0.00 0.00 32 1014.5
20260507211021 57 0.0 0.0 0.00 0.00 0.00 32 1014.4
20260507205346 57 0.0 0.0 0.00 0.00 0.00 33 1014.2
20260507203711 57 0.0 0.0 0.00 0.00 0.00 33 1014.2
20260507202043 58 0.0 0.0 0.00 0.00 0.00 33 1014.1
20260507200400 58 0.0 0.0 0.00 0.00 0.00 33 1014.0
20260507194733 59 0.0 0.0 0.00 0.00 0.00 33 1013.9
20260507193050 59 0.0 0.0 0.00 0.00 0.00 33 1013.7
20260507191423 60 0.0 0.0 0.00 0.00 0.00 33 1013.5
20260507185748 60 0.0 0.0 0.00 0.00 0.00 33 1013.5
20260507184105 61 0.0 0.0 0.00 0.00 0.00 33 1013.3
20260507182430 62 0.0 0.0 0.00 0.00 0.00 33 1013.1
20260507180803 63 0.0 0.0 0.00 0.00 0.00 33 1013.1
20260507175120 64 0.0 0.0 0.00 0.00 0.00 33 1012.8
20260507173453 65 0.0 0.0 0.00 0.00 0.00 33 1012.8
20260507171817 66 0.0 0.0 0.00 0.00 0.00 33 1012.3
20260507170143 67 0.0 0.0 0.00 0.00 0.00 33 1012.1
20260507164500 68 0.0 0.0 0.00 0.00 0.00 33 1012.0
20260507162832 69 0.0 0.0 0.00 0.00 0.00 33 1011.6
20260507161158 71 0.0 0.0 0.00 0.00 0.00 33 1011.5
20260507155515 74 0.0 0.0 0.00 0.00 0.00 32 1011.4
20260507152212 78 0.0 0.0 0.00 0.00 0.00 30 1011.4
20260507150537 81 0.0 0.0 0.00 0.00 0.00 28 1011.3
20260507144902 85 0.0 0.0 0.00 0.00 0.00 25 1011.2
20260507143220 89 0.0 0.0 0.00 0.00 0.00 23 1011.3
20260507141552 89 0.0 0.0 0.00 0.00 0.00 23 1011.3
20260507135910 87 0.0 0.0 0.00 0.00 0.00 24 1011.3
20260507134242 90 0.0 0.0 0.00 0.00 0.00 22 1011.4
20260507132607 92 0.0 0.0 0.00 0.00 0.00 21 1011.4
20260507130925 92 0.0 0.0 0.00 0.00 0.00 21 1011.6
20260507125257 91 0.0 0.0 0.00 0.00 0.00 21 1011.6
20260507123622 90 0.0 0.0 0.00 0.00 0.00 21 1011.8
20260507120312 88 0.0 0.0 0.00 0.00 0.00 22 1012.0
20260507114637 87 0.0 0.0 0.00 0.00 0.00 22 1012.3
20260507113002 86 0.0 0.0 0.00 0.00 0.00 22 1012.4
20260507105652 85 0.0 0.0 0.00 0.00 0.00 23 1012.4
20260507104017 85 0.0 0.0 0.00 0.00 0.00 22 1012.4
20260507102342 83 0.0 0.0 0.00 0.00 0.00 23 1012.5
20260507095032 88 0.0 0.0 0.00 0.00 0.00 20 1012.3
20260507093356 84 0.0 0.0 0.00 0.00 0.00 22 1012.3
20260507091722 82 0.0 0.0 0.00 0.00 0.00 22 1012.2
20260507090047 81 0.0 0.0 0.00 0.00 0.00 23 1012.0
20260507084411 82 0.0 0.0 0.00 0.00 0.00 22 1011.8
20260507082736 82 0.0 0.0 0.00 0.00 0.00 21 1011.6
20260507081101 79 0.0 0.0 0.00 0.00 0.00 22 1011.6
20260507075426 78 0.0 0.0 0.00 0.00 0.00 22 1011.5
20260507070441 74 0.0 0.0 0.00 0.00 0.00 23 1011.3
20260507063131 73 0.0 0.0 0.00 0.00 0.00 22 1011.2
20260507061456 70 0.0 0.0 0.00 0.00 0.00 23 1011.0
20260507055821 66 0.0 0.0 0.00 0.00 0.00 24 1010.8
20260507052511 61 0.0 0.0 0.00 0.00 0.00 27 1010.5
20260507050829 59 0.0 0.0 0.00 0.00 0.00 28 1010.2
20260507045201 57 0.0 0.0 0.00 0.00 0.00 30 1010.1
20260507043526 56 0.0 0.0 0.00 0.00 0.00 30 1009.6
20260507041843 56 0.0 0.0 0.00 0.00 0.00 30 1009.8
20260507040216 55 0.0 0.0 0.00 0.00 0.00 31 1009.6
20260507034623 55 0.0 0.0 0.00 0.00 0.00 31 1009.2
20260507032943 54 0.0 0.0 0.00 0.00 0.00 31 1009.2
20260507032906 54 0.0 0.0 0.00 0.00 0.00 31 1009.2
20260507031231 54 0.0 0.0 0.00 0.00 0.00 32 1008.9
20260507025556 54 0.0 0.0 0.00 0.00 0.00 32 1008.6
20260507023921 55 0.0 0.0 0.00 0.00 0.00 32 1008.7
20260507020603 56 0.0 0.0 0.00 0.00 0.00 32 1008.5
20260507014936 57 0.0 0.0 0.00 0.00 0.00 32 1008.4
20260507013253 57 0.0 0.0 0.00 0.00 0.00 32 1008.2
20260507011627 57 0.0 0.0 0.00 0.00 0.00 32 1007.9
20260507005950 57 0.0 0.0 0.00 0.00 0.00 32 1007.5
20260507004316 58 0.0 0.0 0.00 0.00 0.00 32 1007.1
20260507002641 58 0.0 0.0 0.00 0.00 0.00 32 1006.9
20260507000958 59 0.0 0.0 0.00 0.00 0.00 32 1007.1
20260506235330 59 0.0 0.0 0.00 0.00 0.00 32 1006.9
20260506233655 60 0.0 0.0 0.00 0.00 0.00 32 1006.6